TimeEDT,TemperatureF,Dew PointF,Humidity,Sea Level PressureIn,VisibilityMPH,Wind Direction,Wind SpeedMPH,Gust SpeedMPH,PrecipitationIn,Events,Conditions,WindDirDegrees,DateUTC
12:54 AM,72.0,68.0,87,30.06,10.0,Calm,Calm,-,0.00,,Clear,0,2012-09-02 04:54:00
1:54 AM,71.1,68.0,90,30.06,10.0,Calm,Calm,-,N/A,,Scattered Clouds,0,2012-09-02 05:54:00
2:54 AM,71.1,68.0,90,30.05,10.0,Calm,Calm,-,N/A,,Clear,0,2012-09-02 06:54:00
3:54 AM,71.6,68.0,88,30.07,10.0,Calm,Calm,-,N/A,,Clear,0,2012-09-02 07:54:00
4:54 AM,71.1,68.0,90,30.03,10.0,Calm,Calm,-,N/A,,Clear,0,2012-09-02 08:54:00
5:54 AM,70.0,68.0,93,30.03,10.0,Calm,Calm,-,N/A,,Partly Cloudy,0,2012-09-02 09:54:00
6:54 AM,69.1,66.9,93,30.04,10.0,Calm,Calm,-,N/A,,Scattered Clouds,0,2012-09-02 10:54:00
7:54 AM,72.0,68.0,87,30.05,10.0,Calm,Calm,-,N/A,,Mostly Cloudy,0,2012-09-02 11:54:00
8:54 AM,75.0,70.0,84,30.06,10.0,Calm,Calm,-,N/A,,Overcast,0,2012-09-02 12:54:00
9:54 AM,78.1,70.0,76,30.06,10.0,Calm,Calm,-,N/A,,Clear,0,2012-09-02 13:54:00
10:54 AM,82.0,68.0,62,30.05,10.0,SW,3.5,-,N/A,,Clear,220,2012-09-02 14:54:00
11:54 AM,84.9,69.1,59,30.04,10.0,Variable,3.5,-,N/A,,Clear,0,2012-09-02 15:54:00
12:54 PM,87.1,68.0,53,30.02,10.0,Calm,Calm,-,N/A,,Partly Cloudy,0,2012-09-02 16:54:00
1:54 PM,87.1,68.0,53,30.00,10.0,Calm,Calm,-,N/A,,Scattered Clouds,0,2012-09-02 17:54:00
2:54 PM,81.0,73.0,77,29.99,10.0,NW,9.2,16.1,0.03,Rain,Light Rain,320,2012-09-02 18:54:00
3:54 PM,77.0,70.0,79,29.97,10.0,Variable,3.5,-,0.00,,Mostly Cloudy,0,2012-09-02 19:54:00
4:54 PM,82.0,71.1,69,29.97,10.0,Variable,3.5,-,N/A,,Clear,0,2012-09-02 20:54:00
5:54 PM,80.1,70.0,71,29.97,10.0,ESE,5.8,-,N/A,,Clear,120,2012-09-02 21:54:00
6:54 PM,77.0,71.1,82,30.00,10.0,SE,4.6,-,N/A,,Clear,140,2012-09-02 22:54:00
7:54 PM,75.0,70.0,84,29.99,10.0,ESE,3.5,-,N/A,,Partly Cloudy,110,2012-09-02 23:54:00
8:54 PM,73.0,70.0,90,30.02,10.0,ESE,4.6,-,0.02,Rain,Light Rain,110,2012-09-03 00:54:00
9:33 PM,73.4,69.8,88,30.06,10.0,Variable,6.9,-,0.00,,Overcast,0,2012-09-03 01:33:00
9:38 PM,71.6,69.8,94,30.06,10.0,ENE,3.5,-,0.00,Rain,Light Rain,70,2012-09-03 01:38:00
9:54 PM,72.0,70.0,93,30.04,10.0,SSE,5.8,-,0.00,Rain,Light Rain,160,2012-09-03 01:54:00
10:47 PM,71.6,69.8,94,30.06,10.0,SSW,5.8,-,0.01,,Scattered Clouds,200,2012-09-03 02:47:00
10:54 PM,72.0,69.1,91,30.03,10.0,SSW,4.6,-,0.01,,Mostly Cloudy,210,2012-09-03 02:54:00
11:54 PM,70.0,66.9,90,30.01,10.0,Calm,Calm,-,N/A,,Clear,0,2012-09-03 03:54:00